Location: Carrer del Canonge
(41.4901°N, 2.2931°E)
Time: 01:36:37
(UTC+00:00)

SPOT 3 Rocket - Pass Details

Date: 21 June 2021
Orbit: 779 x 794 km, 98.7° (Epoch: 01 August)

Event Time Altitude Azimuth Distance (km) Brightness Sun altitude
Exits shadow 20:38:17 10° 167° (SSE) 2,361 5.5 -11.0°
Reaches altitude 10° 20:38:21 10° 167° (SSE) 2,334 5.5 -11.0°
Maximum altitude 20:43:31 85° 254° (WSW) 795 3.6 -11.7°
Drops below altitude 10° 20:48:45 10° 345° (NNW) 2,361 7.1 -12.3°
Sets 20:51:05 0° 346° (NNW) 3,296 8.0 -12.6°
